sat.trackr.live / text

‹ back to catalog

STARLINK-11498 [DTC]

NORAD 62276 · 2024-237K

PAYLOAD ACTIVE UNKNOWN

§ Identity

Operator
Country
US
Launch date
2024-12-08
Launch site
AFETR
Launch vehicle
Mass (kg)
RCS (m²)

Purposes: comms

External: N2YO · Heavens-Above · Gunter

§ Orbital elements

Epoch: 2026-09-21T14:17:51.943776Z

Period
91.67 min
Inclination
43.0009°
Eccentricity
0.0001693
Mean motion
15.70850015 rev/d
Perigee alt
355.3 km
Apogee alt
357.6 km
Semi-major
6,734.6 km
B*
9.9724e-4
RAAN
315.7124°
Arg perigee
254.2198°
Mean anomaly
105.8483°
Rev number
10,386

§ Raw data

STARLINK-11498 [DTC]1 62276U 24237K   26264.59574009  .00129580  00000+0  99724-3 0  99982 62276  43.0009 315.7124 0001693 254.2198 105.8483 15.70850015103863

JSON: /api/v1/satellites/62276 · /tle

For live sub-satellite position, see the globe view (requires WebGL).

§ Visibility from observer

Set your observer location to see the next 7 days of passes ≥ 10°. The values pass through the URL so the page stays shareable.

No JS? Fill the form by hand. The geolocation button needs JavaScript.